Location: Goheenville
(40.9070°N, 79.3720°W)
Time: 03:17:19
(UTC-04:00)

Cosmos 1727 Rocket - Visible Passes

Search period start: 18 April 2015 00:00
Search period end: 28 April 2015 00:00
Orbit: 961 x 996 km, 82.9° (Epoch: 17 April)

Date Brightness Start Highest point End Pass type
(mag) Time Alt. Az. Time Alt. Az. Time Alt. Az.
18 Apr 6.7 02:59:02 10° NE 03:01:19 12° ENE 03:04:00 10° E visible
18 Apr 4.1 04:41:36 10° N 04:47:59 82° E 04:54:21 10° S visible
19 Apr 6.1 03:23:33 10° NNE 03:28:22 23° ENE 03:33:21 10° ESE visible
19 Apr 4.1 05:08:07 10° NNW 05:14:18 56° W 05:20:27 10° SSW visible
20 Apr 5.2 03:49:13 10° N 03:55:09 41° ENE 04:01:07 10° SE visible
20 Apr 4.8 05:35:01 10° NNW 05:40:29 30° W 05:45:49 10° SW visible
21 Apr 6.7 02:33:32 10° NE 02:34:54 11° ENE 02:36:43 10° ENE visible
21 Apr 4.2 04:15:20 10° N 04:21:42 74° E 04:28:03 10° SSE visible
21 Apr 5.5 06:02:40 10° NW 06:06:32 16° W 06:10:04 10° WSW visible
22 Apr 6.2 02:57:28 10° NNE 03:02:00 21° ENE 03:06:44 10° ESE visible
22 Apr 4.0 04:41:47 10° NNW 04:48:03 62° W 04:53:53 12° S visible
23 Apr 5.3 03:23:02 10° N 03:28:50 37° ENE 03:34:29 11° SE visible
23 Apr 4.7 05:08:37 10° NNW 05:14:15 34° W 05:19:09 13° SW visible
24 Apr 4.3 03:49:05 10° N 03:55:25 67° E 03:59:54 20° SSE visible
24 Apr 5.4 05:36:05 10° NW 05:40:19 18° W 05:44:16 10° WSW visible
25 Apr 6.2 02:31:25 10° NNE 02:35:37 19° ENE 02:40:04 10° ESE visible
25 Apr 4.0 04:15:29 10° NNW 04:21:48 69° W 04:25:26 27° S visible
26 Apr 5.4 02:56:51 10° N 03:02:30 34° ENE 03:06:22 18° SE visible
26 Apr 4.6 04:42:14 10° NNW 04:48:01 37° W 04:51:04 24° SW visible
27 Apr 4.4 03:22:50 10° N 03:29:08 61° E 03:32:04 32° SSE visible
27 Apr 5.3 05:09:33 10° NW 05:14:07 20° W 05:16:46 15° WSW visible
